Terminal Aerodrome Forecast
Issued by NWS Los Angeles, CA

Home | Current Version | Previous Version | Text Only | Print | Product List | Glossary On
Versions: 1 2 3 4 5 6 7 8 9 10 11 12 13 14 15 16 17 18 19 20 21 22 23
275
FTUS46 KLOX 021132
TAFSMX
TAF
KSMX 021132Z 0212/0312 VRB03KT 6SM BR OVC005
     FM021700 23006KT P6SM SCT010 SCT250
     FM022000 30012KT P6SM SCT100 BKN250
     FM030300 VRB03KT P6SM BKN015
     FM030900 VRB03KT 5SM BR OVC008=

USA.gov is the U.S. government's official web portal to all federal, state and local government web resources and services.